Showing default

AISSAT 4, 68454

Orbit data source: Space-Track

AISSAT 4, 68454 is a Norwegian payload satellite in SSO that was launched on Mon, 30 Mar 2026 UTC via an FALCON 9 launch vehicle from the Air Force Western Test Range (AFWTR). Payload-class satellites include a variety of spacecraft equipped with specific instruments for various scientific and technological missions. These include communications satellites like Starlink; space stations such as the ISS; scientific satellites like the Hubble; Earth observation satellites from companies like Planet Labs, Umbra, and HawkEye 360; GPS; miniature CubeSats for education and research; and military/defense satellites.

Loading next visibility...
Identifier
68454, 2026-067AQ
Orbit
SSO
Country
Flag of NONO / NOR
Related business
None
Manufacturer
Unknown
Mission
Operational spacecraft
Bus & Motor
Unknown
Mass
Unknown
Launch date (UTC)
2026-03-30 (1 month ago)
Launch vehicle
FALCON 9
Launch site
Air Force Western Test Range (AFWTR)
Object type
Payload
Rocket body
Debris
Shape & HBR
Unknown shape, 1.1 m
Radar Cross Section
RCS unknown

Expand to show TLE details & history
Last TLE update: 22 hours ago

TLE from 22 hours ago
0 AISSAT 4
1 68454U 26067AQ  26126.83477719  .00006219  00000-0  31546-3 0  9991
2 68454  97.4553  85.8781 0004857 186.7791 173.3378 15.17278663  5667
Epoch: 2026-05-06T20:02Z
TLE epoch observation values (Epoch: 2026-05-06T20:02:04.749Z)
Latitude
0.00003°
Longitude
-79.33127°
Altitude
520.48 km
Speed
7.601 km/s
True Right ascension
05h 43m 30s
True Declination
0° 00' 00"
Sunlit
Object was in daylight at epoch
Visualization orbit readout
Latitude
Unknown
Longitude
Unknown
Altitude
Unknown
Speed
Unknown
Apparent Right ascension
Unknown
Apparent Declination
Unknown
Sunlit
N/A
Visualization observer readout
Local Sidereal Time
01:58:16
Azimuth
Unknown
Elevation
Unknown
Doppler factor
Unknown
Orbital elements
Apogee altitude
514.387 km
Perigee altitude
507.695 km
Semi-major axis
6,889.178 km
Eccentricity
0.00049
Inclination
97.4553°
RAAN
85.8781°
Arg. of periapsis
186.7791°
True anomaly
173.34425°
Mean anomaly
173.3378°
Eccentric anomaly
173.34103°
Mean motion
3.7957 °/min
Orbital period
94.84 mins
BSTAR
0.00031546
Loading maneuver chart data...
Computing Atmospheric mass density...
Loading historical data...
Loading historical data...
Loading historical data...
Loading historical data...
Loading historical data...
Loading historical data...
Loading historical data...

Documentation

Showing up to 5 results
|